Location: Moscow
(38.8570°N, 84.2291°W)
Time: 19:37:40
(UTC+00:00)

NANOSAT C BR1 - Pass Details

Date: 11 March 2026
Orbit: 474 x 480 km, 98.1° (Epoch: 21 April)

Event Time Altitude Azimuth Distance (km) Brightness Sun altitude
Rises 00:49:01 0° 194° (SSW) 2,544 ? -14.4°
Reaches altitude 10° 00:51:22 10° 209° (SSW) 1,668 ? -14.9°
Maximum altitude 00:54:16 23° 263° (W) 1,070 ? -15.4°
Drops below altitude 10° 00:57:13 10° 318° (NW) 1,677 ? -16.0°
Sets 00:59:36 0° 333° (NNW) 2,561 ? -16.4°
